owner,sensor,date,latitude,longitude,vertical_datum,mass_concentration_of_oxygen_in_sea_water,qcFlag 
DISL,ioos:station:DISL:CATA:1,2013-05-01T00:00:00Z,30.3085,-88.1395,2.412,8.7,1111122 
DISL,ioos:station:DISL:CATA:1,2013-05-01T00:30:00Z,30.3085,-88.1395,2.443,8.66,1111122 
DISL,ioos:station:DISL:CATA:1,2013-05-01T01:00:00Z,30.3085,-88.1395,2.41,8.61,1111122 
DISL,ioos:station:DISL:CATA:1,2013-05-01T01:30:00Z,30.3085,-88.1395,2.36,8.51,1111122 
DISL,ioos:station:DISL:CATA:1,2013-05-01T02:00:00Z,30.3085,-88.1395,2.292,8.45,1111122 
DISL,ioos:station:DISL:CATA:1,2013-05-01T02:30:00Z,30.3085,-88.1395,2.201,8.45,1111122 
DISL,ioos:station:DISL:CATA:1,2013-05-01T03:00:00Z,30.3085,-88.1395,2.141,8.42,1111122 
DISL,ioos:station:DISL:CATA:1,2013-05-01T03:30:00Z,30.3085,-88.1395,2.117,8.44,1111122 
DISL,ioos:station:DISL:CATA:1,2013-05-01T04:00:00Z,30.3085,-88.1395,2.106,8.36,1111122 
DISL,ioos:station:DISL:CATA:1,2013-05-01T04:30:00Z,30.3085,-88.1395,2.104,8.22,1111122 
DISL,ioos:station:DISL:CATA:1,2013-05-01T05:00:00Z,30.3085,-88.1395,2.11,7.74,1111122 
DISL,ioos:station:DISL:CATA:1,2013-05-01T05:30:00Z,30.3085,-88.1395,2.122,7.79,1111122 
DISL,ioos:station:DISL:CATA:1,2013-05-01T06:00:00Z,30.3085,-88.1395,2.121,7.83,1111122 
DISL,ioos:station:DISL:CATA:1,2013-05-01T06:30:00Z,30.3085,-88.1395,2.114,7.93,1111122 
DISL,ioos:station:DISL:CATA:1,2013-05-01T07:00:00Z,30.3085,-88.1395,2.108,7.94,1111122 
DISL,ioos:station:DISL:CATA:1,2013-05-01T07:30:00Z,30.3085,-88.1395,2.101,7.75,1111122 
DISL,ioos:station:DISL:CATA:1,2013-05-01T08:00:00Z,30.3085,-88.1395,2.112,7.79,1111122 
DISL,ioos:station:DISL:CATA:1,2013-05-01T08:30:00Z,30.3085,-88.1395,2.123,7.66,1111122 
DISL,ioos:station:DISL:CATA:1,2013-05-01T09:00:00Z,30.3085,-88.1395,2.133,7.67,1111122 
DISL,ioos:station:DISL:CATA:1,2013-05-01T09:30:00Z,30.3085,-88.1395,2.131,7.7,1111122 
DISL,ioos:station:DISL:CATA:1,2013-05-01T10:00:00Z,30.3085,-88.1395,2.138,7.77,1111122 
DISL,ioos:station:DISL:CATA:1,2013-05-01T10:30:00Z,30.3085,-88.1395,2.148,7.76,1111122 
DISL,ioos:station:DISL:CATA:1,2013-05-01T11:00:00Z,30.3085,-88.1395,2.185,7.69,1111122 
DISL,ioos:station:DISL:CATA:1,2013-05-01T11:30:00Z,30.3085,-88.1395,2.227,7.6,1111122 
DISL,ioos:station:DISL:CATA:1,2013-05-01T12:00:00Z,30.3085,-88.1395,2.258,7.63,1111122 
DISL,ioos:station:DISL:CATA:1,2013-05-01T12:30:00Z,30.3085,-88.1395,2.285,7.58,1111122 
DISL,ioos:station:DISL:CATA:1,2013-05-01T13:00:00Z,30.3085,-88.1395,2.292,7.54,1111122 
DISL,ioos:station:DISL:CATA:1,2013-05-01T13:30:00Z,30.3085,-88.1395,2.333,7.49,1111122 
DISL,ioos:station:DISL:CATA:1,2013-05-01T14:00:00Z,30.3085,-88.1395,2.355,7.39,1111122 
DISL,ioos:station:DISL:CATA:1,2013-05-01T14:30:00Z,30.3085,-88.1395,2.379,7.51,1111122 
DISL,ioos:station:DISL:CATA:1,2013-05-01T15:00:00Z,30.3085,-88.1395,2.417,7.55,1111122 
DISL,ioos:station:DISL:CATA:1,2013-05-01T15:30:00Z,30.3085,-88.1395,2.444,7.61,1111122 
DISL,ioos:station:DISL:CATA:1,2013-05-01T16:00:00Z,30.3085,-88.1395,2.448,7.63,1111122 
DISL,ioos:station:DISL:CATA:1,2013-05-01T16:30:00Z,30.3085,-88.1395,2.463,7.69,1111122 
DISL,ioos:station:DISL:CATA:1,2013-05-01T17:00:00Z,30.3085,-88.1395,2.468,7.68,1111122 
DISL,ioos:station:DISL:CATA:1,2013-05-01T17:30:00Z,30.3085,-88.1395,2.483,7.64,1111122 
DISL,ioos:station:DISL:CATA:1,2013-05-01T18:00:00Z,30.3085,-88.1395,2.52,7.59,1111122 
DISL,ioos:station:DISL:CATA:1,2013-05-01T18:30:00Z,30.3085,-88.1395,2.533,7.63,1111122 
DISL,ioos:station:DISL:CATA:1,2013-05-01T19:00:00Z,30.3085,-88.1395,2.548,7.61,1111122 
DISL,ioos:station:DISL:CATA:1,2013-05-01T19:30:00Z,30.3085,-88.1395,2.558,7.59,1111122 
DISL,ioos:station:DISL:CATA:1,2013-05-01T20:00:00Z,30.3085,-88.1395,2.563,7.29,1111122 
DISL,ioos:station:DISL:CATA:1,2013-05-01T20:30:00Z,30.3085,-88.1395,2.532,7.27,1111122 
DISL,ioos:station:DISL:CATA:1,2013-05-01T21:00:00Z,30.3085,-88.1395,2.561,7.33,1111122 
DISL,ioos:station:DISL:CATA:1,2013-05-01T21:30:00Z,30.3085,-88.1395,2.528,7.35,1111122 
DISL,ioos:station:DISL:CATA:1,2013-05-01T22:00:00Z,30.3085,-88.1395,2.626,7.43,1111122 
DISL,ioos:station:DISL:CATA:1,2013-05-01T22:30:00Z,30.3085,-88.1395,2.499,7.46,1111122 
DISL,ioos:station:DISL:CATA:1,2013-05-01T23:00:00Z,30.3085,-88.1395,2.493,7.5,1111122 
DISL,ioos:station:DISL:CATA:1,2013-05-01T23:30:00Z,30.3085,-88.1395,2.52,7.44,1111122 
DISL,ioos:station:DISL:CATA:1,2013-05-02T00:00:00Z,30.3085,-88.1395,2.52,7.53,1111122 
DISL,ioos:station:DISL:CATA:1,2013-05-02T00:30:00Z,30.3085,-88.1395,2.366,7.5,1111122 
DISL,ioos:station:DISL:CATA:1,2013-05-02T01:00:00Z,30.3085,-88.1395,2.448,7.44,1111122 
DISL,ioos:station:DISL:CATA:1,2013-05-02T01:30:00Z,30.3085,-88.1395,2.323,7.46,1111122 
DISL,ioos:station:DISL:CATA:1,2013-05-02T02:00:00Z,30.3085,-88.1395,2.413,7.4,1111122 
DISL,ioos:station:DISL:CATA:1,2013-05-02T02:30:00Z,30.3085,-88.1395,2.333,7.46,1111122 
DISL,ioos:station:DISL:CATA:1,2013-05-02T03:00:00Z,30.3085,-88.1395,2.555,7.44,1111122 
DISL,ioos:station:DISL:CATA:1,2013-05-02T03:30:00Z,30.3085,-88.1395,2.523,7.21,1111122 
DISL,ioos:station:DISL:CATA:1,2013-05-02T04:00:00Z,30.3085,-88.1395,2.428,7.34,1111122 
DISL,ioos:station:DISL:CATA:1,2013-05-02T04:30:00Z,30.3085,-88.1395,2.201,7.24,1111122 
DISL,ioos:station:DISL:CATA:1,2013-05-02T05:00:00Z,30.3085,-88.1395,2.231,7.2,1111122 
DISL,ioos:station:DISL:CATA:1,2013-05-02T05:30:00Z,30.3085,-88.1395,2.225,7.36,1111122 
DISL,ioos:station:DISL:CATA:1,2013-05-02T06:00:00Z,30.3085,-88.1395,2.212,7.33,1111122 
DISL,ioos:station:DISL:CATA:1,2013-05-02T06:30:00Z,30.3085,-88.1395,2.201,7.64,1111122 
DISL,ioos:station:DISL:CATA:1,2013-05-02T07:00:00Z,30.3085,-88.1395,2.237,7.44,1111122 
DISL,ioos:station:DISL:CATA:1,2013-05-02T07:30:00Z,30.3085,-88.1395,2.328,7.36,1111122 
DISL,ioos:station:DISL:CATA:1,2013-05-02T08:00:00Z,30.3085,-88.1395,2.355,7.27,1111122 
DISL,ioos:station:DISL:CATA:1,2013-05-02T08:30:00Z,30.3085,-88.1395,2.348,7.37,1111122 
DISL,ioos:station:DISL:CATA:1,2013-05-02T09:00:00Z,30.3085,-88.1395,2.384,7.4,1111122 
DISL,ioos:station:DISL:CATA:1,2013-05-02T09:30:00Z,30.3085,-88.1395,2.376,7.49,1111122 
DISL,ioos:station:DISL:CATA:1,2013-05-02T10:00:00Z,30.3085,-88.1395,2.349,7.58,1111122 
DISL,ioos:station:DISL:CATA:1,2013-05-02T10:30:00Z,30.3085,-88.1395,2.367,7.61,1111122 
DISL,ioos:station:DISL:CATA:1,2013-05-02T11:00:00Z,30.3085,-88.1395,2.404,7.61,1111122 
DISL,ioos:station:DISL:CATA:1,2013-05-02T11:30:00Z,30.3085,-88.1395,2.37,7.65,1111122 
DISL,ioos:station:DISL:CATA:1,2013-05-02T12:00:00Z,30.3085,-88.1395,2.386,7.66,1111122 
DISL,ioos:station:DISL:CATA:1,2013-05-02T12:30:00Z,30.3085,-88.1395,2.366,7.66,1111122 
DISL,ioos:station:DISL:CATA:1,2013-05-02T13:00:00Z,30.3085,-88.1395,2.346,7.68,1111122 
DISL,ioos:station:DISL:CATA:1,2013-05-02T13:30:00Z,30.3085,-88.1395,2.329,7.66,1111122 
DISL,ioos:station:DISL:CATA:1,2013-05-02T14:00:00Z,30.3085,-88.1395,2.341,7.68,1111122 
DISL,ioos:station:DISL:CATA:1,2013-05-02T14:30:00Z,30.3085,-88.1395,2.337,7.69,1111122 
DISL,ioos:station:DISL:CATA:1,2013-05-02T15:00:00Z,30.3085,-88.1395,2.353,7.66,1111122 
DISL,ioos:station:DISL:CATA:1,2013-05-02T15:30:00Z,30.3085,-88.1395,2.381,7.73,1111122 
DISL,ioos:station:DISL:CATA:1,2013-05-02T16:00:00Z,30.3085,-88.1395,2.415,7.74,1111122 
DISL,ioos:station:DISL:CATA:1,2013-05-02T16:30:00Z,30.3085,-88.1395,2.428,7.78,1111122 
DISL,ioos:station:DISL:CATA:1,2013-05-02T17:00:00Z,30.3085,-88.1395,2.455,7.8,1111122 
DISL,ioos:station:DISL:CATA:1,2013-05-02T17:30:00Z,30.3085,-88.1395,2.477,7.83,1111122 
DISL,ioos:station:DISL:CATA:1,2013-05-02T18:00:00Z,30.3085,-88.1395,2.48,7.9,1111122 
DISL,ioos:station:DISL:CATA:1,2013-05-02T18:30:00Z,30.3085,-88.1395,2.484,7.92,1111122 
DISL,ioos:station:DISL:CATA:1,2013-05-02T19:00:00Z,30.3085,-88.1395,2.488,7.94,1111122 
DISL,ioos:station:DISL:CATA:1,2013-05-02T19:30:00Z,30.3085,-88.1395,2.505,7.98,1111122 
DISL,ioos:station:DISL:CATA:1,2013-05-02T20:00:00Z,30.3085,-88.1395,2.538,7.94,1111122 
DISL,ioos:station:DISL:CATA:1,2013-05-02T20:30:00Z,30.3085,-88.1395,2.562,7.96,1111122 
DISL,ioos:station:DISL:CATA:1,2013-05-02T21:00:00Z,30.3085,-88.1395,2.515,7.82,1111122 
DISL,ioos:station:DISL:CATA:1,2013-05-02T21:30:00Z,30.3085,-88.1395,2.498,7.82,1111122 
DISL,ioos:station:DISL:CATA:1,2013-05-02T22:00:00Z,30.3085,-88.1395,2.492,7.89,1111122 
DISL,ioos:station:DISL:CATA:1,2013-05-02T22:30:00Z,30.3085,-88.1395,2.481,7.99,1111122 
DISL,ioos:station:DISL:CATA:1,2013-05-02T23:00:00Z,30.3085,-88.1395,2.458,8.06,1111122 
DISL,ioos:station:DISL:CATA:1,2013-05-02T23:30:00Z,30.3085,-88.1395,2.436,8.07,1111122 
DISL,ioos:station:DISL:CATA:1,2013-05-03T00:00:00Z,30.3085,-88.1395,2.437,8.21,1111122 
DISL,ioos:station:DISL:CATA:1,2013-05-03T00:30:00Z,30.3085,-88.1395,2.437,8.28,1111122 
DISL,ioos:station:DISL:CATA:1,2013-05-03T01:00:00Z,30.3085,-88.1395,2.434,8.25,1111122 
DISL,ioos:station:DISL:CATA:1,2013-05-03T01:30:00Z,30.3085,-88.1395,2.43,8.22,1111122 
DISL,ioos:station:DISL:CATA:1,2013-05-03T02:00:00Z,30.3085,-88.1395,2.417,8.22,1111122 
DISL,ioos:station:DISL:CATA:1,2013-05-03T02:30:00Z,30.3085,-88.1395,2.403,8.19,1111122 
DISL,ioos:station:DISL:CATA:1,2013-05-03T03:00:00Z,30.3085,-88.1395,2.375,8.12,1111122 
DISL,ioos:station:DISL:CATA:1,2013-05-03T03:30:00Z,30.3085,-88.1395,2.343,8.12,1111122 
DISL,ioos:station:DISL:CATA:1,2013-05-03T04:00:00Z,30.3085,-88.1395,2.267,8.07,1111122 
DISL,ioos:station:DISL:CATA:1,2013-05-03T04:30:00Z,30.3085,-88.1395,2.23,8.09,1111122 
DISL,ioos:station:DISL:CATA:1,2013-05-03T05:00:00Z,30.3085,-88.1395,2.211,8.06,1111122 
DISL,ioos:station:DISL:CATA:1,2013-05-03T05:30:00Z,30.3085,-88.1395,2.206,8.05,1111122 
DISL,ioos:station:DISL:CATA:1,2013-05-03T06:00:00Z,30.3085,-88.1395,2.202,8.01,1111122 
DISL,ioos:station:DISL:CATA:1,2013-05-03T06:30:00Z,30.3085,-88.1395,2.173,7.99,1111122 
DISL,ioos:station:DISL:CATA:1,2013-05-03T07:00:00Z,30.3085,-88.1395,2.159,7.93,1111122 
DISL,ioos:station:DISL:CATA:1,2013-05-03T07:30:00Z,30.3085,-88.1395,2.164,7.95,1111122 
DISL,ioos:station:DISL:CATA:1,2013-05-03T08:00:00Z,30.3085,-88.1395,2.162,7.95,1111122 
DISL,ioos:station:DISL:CATA:1,2013-05-03T08:30:00Z,30.3085,-88.1395,2.187,7.91,1111122 
DISL,ioos:station:DISL:CATA:1,2013-05-03T09:00:00Z,30.3085,-88.1395,2.228,7.89,1111122 
DISL,ioos:station:DISL:CATA:1,2013-05-03T09:30:00Z,30.3085,-88.1395,2.262,7.85,1111122 
DISL,ioos:station:DISL:CATA:1,2013-05-03T10:00:00Z,30.3085,-88.1395,2.276,7.81,1111122 
DISL,ioos:station:DISL:CATA:1,2013-05-03T10:30:00Z,30.3085,-88.1395,2.282,7.76,1111122 
DISL,ioos:station:DISL:CATA:1,2013-05-03T11:00:00Z,30.3085,-88.1395,2.287,7.7,1111122 
DISL,ioos:station:DISL:CATA:1,2013-05-03T11:30:00Z,30.3085,-88.1395,2.314,7.65,1111122 
DISL,ioos:station:DISL:CATA:1,2013-05-03T12:00:00Z,30.3085,-88.1395,2.338,7.6,1111122 
DISL,ioos:station:DISL:CATA:1,2013-05-03T12:30:00Z,30.3085,-88.1395,2.366,7.56,1111122 
DISL,ioos:station:DISL:CATA:1,2013-05-03T13:00:00Z,30.3085,-88.1395,2.386,7.57,1111122 
DISL,ioos:station:DISL:CATA:1,2013-05-03T13:30:00Z,30.3085,-88.1395,2.41,7.58,1111122 
DISL,ioos:station:DISL:CATA:1,2013-05-03T14:00:00Z,30.3085,-88.1395,2.416,7.58,1111122 
DISL,ioos:station:DISL:CATA:1,2013-05-03T14:30:00Z,30.3085,-88.1395,2.436,7.55,1111122 
DISL,ioos:station:DISL:CATA:1,2013-05-03T15:00:00Z,30.3085,-88.1395,2.449,7.53,1111122 
DISL,ioos:station:DISL:CATA:1,2013-05-03T15:30:00Z,30.3085,-88.1395,2.464,7.52,1111122 
DISL,ioos:station:DISL:CATA:1,2013-05-03T16:00:00Z,30.3085,-88.1395,2.465,7.53,1111122 
DISL,ioos:station:DISL:CATA:1,2013-05-03T16:30:00Z,30.3085,-88.1395,2.466,7.58,1111122 
DISL,ioos:station:DISL:CATA:1,2013-05-03T17:00:00Z,30.3085,-88.1395,2.463,7.62,1111122 
DISL,ioos:station:DISL:CATA:1,2013-05-03T17:30:00Z,30.3085,-88.1395,2.474,7.87,1111122 
DISL,ioos:station:DISL:CATA:1,2013-05-03T18:00:00Z,30.3085,-88.1395,2.485,8.02,1111122 
DISL,ioos:station:DISL:CATA:1,2013-05-03T18:30:00Z,30.3085,-88.1395,2.487,8.09,1111122 
DISL,ioos:station:DISL:CATA:1,2013-05-03T19:00:00Z,30.3085,-88.1395,2.484,8.18,1111122 
DISL,ioos:station:DISL:CATA:1,2013-05-03T19:30:00Z,30.3085,-88.1395,2.488,8.53,1111122 
DISL,ioos:station:DISL:CATA:1,2013-05-03T20:00:00Z,30.3085,-88.1395,2.495,8.63,1111122 
DISL,ioos:station:DISL:CATA:1,2013-05-03T20:30:00Z,30.3085,-88.1395,2.499,8.9,1111122 
DISL,ioos:station:DISL:CATA:1,2013-05-03T21:00:00Z,30.3085,-88.1395,2.497,9.04,1111122 
DISL,ioos:station:DISL:CATA:1,2013-05-03T21:30:00Z,30.3085,-88.1395,2.491,9.01,1111122 
DISL,ioos:station:DISL:CATA:1,2013-05-03T22:00:00Z,30.3085,-88.1395,2.482,8.93,1111122 
DISL,ioos:station:DISL:CATA:1,2013-05-03T22:30:00Z,30.3085,-88.1395,2.474,8.83,1111122 
DISL,ioos:station:DISL:CATA:1,2013-05-03T23:00:00Z,30.3085,-88.1395,2.47,8.72,1111122 
DISL,ioos:station:DISL:CATA:1,2013-05-03T23:30:00Z,30.3085,-88.1395,2.49,8.61,1111122 
DISL,ioos:station:DISL:CATA:1,2013-05-04T00:00:00Z,30.3085,-88.1395,2.506,8.71,1111122 
DISL,ioos:station:DISL:CATA:1,2013-05-04T00:30:00Z,30.3085,-88.1395,2.445,8.81,1111122 
DISL,ioos:station:DISL:CATA:1,2013-05-04T01:00:00Z,30.3085,-88.1395,2.358,8.67,1111122 
DISL,ioos:station:DISL:CATA:1,2013-05-04T01:30:00Z,30.3085,-88.1395,2.3,8.59,1111122 
DISL,ioos:station:DISL:CATA:1,2013-05-04T02:00:00Z,30.3085,-88.1395,2.24,8.61,1111122 
DISL,ioos:station:DISL:CATA:1,2013-05-04T02:30:00Z,30.3085,-88.1395,2.251,8.56,1111122 
DISL,ioos:station:DISL:CATA:1,2013-05-04T03:00:00Z,30.3085,-88.1395,2.239,8.88,1111122 
DISL,ioos:station:DISL:CATA:1,2013-05-04T03:30:00Z,30.3085,-88.1395,2.19,8.86,1111122 
DISL,ioos:station:DISL:CATA:1,2013-05-04T04:00:00Z,30.3085,-88.1395,2.177,8.8,1111122 
DISL,ioos:station:DISL:CATA:1,2013-05-04T04:30:00Z,30.3085,-88.1395,2.17,8.69,1111122 
DISL,ioos:station:DISL:CATA:1,2013-05-04T05:00:00Z,30.3085,-88.1395,2.13,8.59,1111122 
DISL,ioos:station:DISL:CATA:1,2013-05-04T05:30:00Z,30.3085,-88.1395,2.126,8.52,1111122 
DISL,ioos:station:DISL:CATA:1,2013-05-04T06:00:00Z,30.3085,-88.1395,2.103,8.47,1111122 
DISL,ioos:station:DISL:CATA:1,2013-05-04T06:30:00Z,30.3085,-88.1395,2.049,8.43,1111122 
DISL,ioos:station:DISL:CATA:1,2013-05-04T07:00:00Z,30.3085,-88.1395,2.027,8.38,1111122 
DISL,ioos:station:DISL:CATA:1,2013-05-04T07:30:00Z,30.3085,-88.1395,1.995,8.46,1111122 
DISL,ioos:station:DISL:CATA:1,2013-05-04T08:00:00Z,30.3085,-88.1395,1.957,8.41,1111122 
DISL,ioos:station:DISL:CATA:1,2013-05-04T08:30:00Z,30.3085,-88.1395,1.918,8.3,1111122 
DISL,ioos:station:DISL:CATA:1,2013-05-04T09:00:00Z,30.3085,-88.1395,1.906,8.22,1111122 
DISL,ioos:station:DISL:CATA:1,2013-05-04T09:30:00Z,30.3085,-88.1395,1.922,8.11,1111122 
DISL,ioos:station:DISL:CATA:1,2013-05-04T10:00:00Z,30.3085,-88.1395,1.967,8.03,1111122 
DISL,ioos:station:DISL:CATA:1,2013-05-04T10:30:00Z,30.3085,-88.1395,1.997,7.58,1111122 
DISL,ioos:station:DISL:CATA:1,2013-05-04T11:00:00Z,30.3085,-88.1395,2.018,8.0,1111122 
DISL,ioos:station:DISL:CATA:1,2013-05-04T11:30:00Z,30.3085,-88.1395,2.016,8.34,1111122 
DISL,ioos:station:DISL:CATA:1,2013-05-04T12:00:00Z,30.3085,-88.1395,2.033,8.4,1111122 
DISL,ioos:station:DISL:CATA:1,2013-05-04T12:30:00Z,30.3085,-88.1395,2.062,8.4,1111122 
DISL,ioos:station:DISL:CATA:1,2013-05-04T13:00:00Z,30.3085,-88.1395,2.069,8.41,1111122 
DISL,ioos:station:DISL:CATA:1,2013-05-04T13:30:00Z,30.3085,-88.1395,2.086,8.54,1111122 
DISL,ioos:station:DISL:CATA:1,2013-05-04T14:00:00Z,30.3085,-88.1395,2.098,8.6,1111122 
DISL,ioos:station:DISL:CATA:1,2013-05-04T14:30:00Z,30.3085,-88.1395,2.114,8.61,1111122 
DISL,ioos:station:DISL:CATA:1,2013-05-04T15:00:00Z,30.3085,-88.1395,2.134,8.54,1111122 
DISL,ioos:station:DISL:CATA:1,2013-05-04T15:30:00Z,30.3085,-88.1395,2.151,8.58,1111122 
DISL,ioos:station:DISL:CATA:1,2013-05-04T16:00:00Z,30.3085,-88.1395,2.184,8.6,1111122 
DISL,ioos:station:DISL:CATA:1,2013-05-04T16:30:00Z,30.3085,-88.1395,2.191,8.57,1111122 
DISL,ioos:station:DISL:CATA:1,2013-05-04T17:00:00Z,30.3085,-88.1395,2.206,8.53,1111122 
DISL,ioos:station:DISL:CATA:1,2013-05-04T17:30:00Z,30.3085,-88.1395,2.188,8.59,1111122 
DISL,ioos:station:DISL:CATA:1,2013-05-04T18:00:00Z,30.3085,-88.1395,2.176,8.61,1111122 
DISL,ioos:station:DISL:CATA:1,2013-05-04T18:30:00Z,30.3085,-88.1395,2.18,8.61,1111122 
DISL,ioos:station:DISL:CATA:1,2013-05-04T19:00:00Z,30.3085,-88.1395,2.201,8.58,1111122 
DISL,ioos:station:DISL:CATA:1,2013-05-04T19:30:00Z,30.3085,-88.1395,2.191,8.67,1111122 
DISL,ioos:station:DISL:CATA:1,2013-05-04T20:00:00Z,30.3085,-88.1395,2.222,8.74,1111122 
DISL,ioos:station:DISL:CATA:1,2013-05-04T20:30:00Z,30.3085,-88.1395,2.221,8.84,1111122 
DISL,ioos:station:DISL:CATA:1,2013-05-04T21:00:00Z,30.3085,-88.1395,2.224,9.0,1111122 
DISL,ioos:station:DISL:CATA:1,2013-05-04T21:30:00Z,30.3085,-88.1395,2.228,9.11,1111122 
DISL,ioos:station:DISL:CATA:1,2013-05-04T22:00:00Z,30.3085,-88.1395,2.225,9.09,1111122 
DISL,ioos:station:DISL:CATA:1,2013-05-04T22:30:00Z,30.3085,-88.1395,2.24,9.18,1111122 
DISL,ioos:station:DISL:CATA:1,2013-05-04T23:00:00Z,30.3085,-88.1395,2.241,9.43,1111122 
DISL,ioos:station:DISL:CATA:1,2013-05-04T23:30:00Z,30.3085,-88.1395,2.244,9.68,1111122 
DISL,ioos:station:DISL:CATA:1,2013-05-05T00:00:00Z,30.3085,-88.1395,2.248,9.61,1111122 
DISL,ioos:station:DISL:CATA:1,2013-05-05T00:30:00Z,30.3085,-88.1395,2.258,9.63,1111122 
DISL,ioos:station:DISL:CATA:1,2013-05-05T01:00:00Z,30.3085,-88.1395,2.257,9.58,1111122 
DISL,ioos:station:DISL:CATA:1,2013-05-05T01:30:00Z,30.3085,-88.1395,2.256,9.71,1111122 
DISL,ioos:station:DISL:CATA:1,2013-05-05T02:00:00Z,30.3085,-88.1395,2.273,9.68,1111122 
DISL,ioos:station:DISL:CATA:1,2013-05-05T02:30:00Z,30.3085,-88.1395,2.279,9.58,1111122 
DISL,ioos:station:DISL:CATA:1,2013-05-05T03:00:00Z,30.3085,-88.1395,2.275,9.72,1111122 
DISL,ioos:station:DISL:CATA:1,2013-05-05T03:30:00Z,30.3085,-88.1395,2.28,9.47,1111122 
DISL,ioos:station:DISL:CATA:1,2013-05-05T04:00:00Z,30.3085,-88.1395,2.276,9.14,1111122 
DISL,ioos:station:DISL:CATA:1,2013-05-05T04:30:00Z,30.3085,-88.1395,2.245,9.15,1111122 
DISL,ioos:station:DISL:CATA:1,2013-05-05T05:00:00Z,30.3085,-88.1395,2.237,8.61,1111122 
DISL,ioos:station:DISL:CATA:1,2013-05-05T05:30:00Z,30.3085,-88.1395,2.246,8.48,1111122 
DISL,ioos:station:DISL:CATA:1,2013-05-05T06:00:00Z,30.3085,-88.1395,2.269,8.33,1111122 
DISL,ioos:station:DISL:CATA:1,2013-05-05T06:30:00Z,30.3085,-88.1395,2.272,8.27,1111122 
DISL,ioos:station:DISL:CATA:1,2013-05-05T07:00:00Z,30.3085,-88.1395,2.26,8.48,1111122 
DISL,ioos:station:DISL:CATA:1,2013-05-05T07:30:00Z,30.3085,-88.1395,2.253,8.34,1111122 
DISL,ioos:station:DISL:CATA:1,2013-05-05T08:00:00Z,30.3085,-88.1395,2.245,8.12,1111122 
DISL,ioos:station:DISL:CATA:1,2013-05-05T08:30:00Z,30.3085,-88.1395,2.225,8.05,1111122 
DISL,ioos:station:DISL:CATA:1,2013-05-05T09:00:00Z,30.3085,-88.1395,2.231,7.96,1111122 
DISL,ioos:station:DISL:CATA:1,2013-05-05T09:30:00Z,30.3085,-88.1395,2.232,7.88,1111122 
DISL,ioos:station:DISL:CATA:1,2013-05-05T10:00:00Z,30.3085,-88.1395,2.244,7.81,1111122 
DISL,ioos:station:DISL:CATA:1,2013-05-05T10:30:00Z,30.3085,-88.1395,2.238,7.76,1111122 
DISL,ioos:station:DISL:CATA:1,2013-05-05T11:00:00Z,30.3085,-88.1395,2.222,7.76,1111122 
DISL,ioos:station:DISL:CATA:1,2013-05-05T11:30:00Z,30.3085,-88.1395,2.234,7.85,1111122 
DISL,ioos:station:DISL:CATA:1,2013-05-05T12:00:00Z,30.3085,-88.1395,2.212,7.96,1111122 
DISL,ioos:station:DISL:CATA:1,2013-05-05T12:30:00Z,30.3085,-88.1395,2.271,7.95,1111122 
DISL,ioos:station:DISL:CATA:1,2013-05-05T13:00:00Z,30.3085,-88.1395,2.279,7.91,1111122 
DISL,ioos:station:DISL:CATA:1,2013-05-05T13:30:00Z,30.3085,-88.1395,2.314,7.93,1111122 
DISL,ioos:station:DISL:CATA:1,2013-05-05T14:00:00Z,30.3085,-88.1395,2.296,7.99,1111122 
DISL,ioos:station:DISL:CATA:1,2013-05-05T14:30:00Z,30.3085,-88.1395,2.271,8.08,1111122 
DISL,ioos:station:DISL:CATA:1,2013-05-05T15:00:00Z,30.3085,-88.1395,2.251,8.17,1111122 
DISL,ioos:station:DISL:CATA:1,2013-05-05T15:30:00Z,30.3085,-88.1395,2.23,8.15,1111122 
DISL,ioos:station:DISL:CATA:1,2013-05-05T16:00:00Z,30.3085,-88.1395,2.19,7.88,1111122 
DISL,ioos:station:DISL:CATA:1,2013-05-05T16:30:00Z,30.3085,-88.1395,2.172,8.27,1111122 
DISL,ioos:station:DISL:CATA:1,2013-05-05T17:00:00Z,30.3085,-88.1395,2.161,8.55,1111122 
DISL,ioos:station:DISL:CATA:1,2013-05-05T17:30:00Z,30.3085,-88.1395,2.16,8.64,1111122 
DISL,ioos:station:DISL:CATA:1,2013-05-05T18:00:00Z,30.3085,-88.1395,2.135,8.67,1111122 
DISL,ioos:station:DISL:CATA:1,2013-05-05T18:30:00Z,30.3085,-88.1395,2.119,8.64,1111122 
DISL,ioos:station:DISL:CATA:1,2013-05-05T19:00:00Z,30.3085,-88.1395,2.128,8.63,1111122 
DISL,ioos:station:DISL:CATA:1,2013-05-05T19:30:00Z,30.3085,-88.1395,2.12,8.6,1111122 
DISL,ioos:station:DISL:CATA:1,2013-05-05T20:00:00Z,30.3085,-88.1395,2.086,8.43,1111122 
DISL,ioos:station:DISL:CATA:1,2013-05-05T20:30:00Z,30.3085,-88.1395,2.079,8.29,1111122 
DISL,ioos:station:DISL:CATA:1,2013-05-05T21:00:00Z,30.3085,-88.1395,2.035,8.37,1111122 
DISL,ioos:station:DISL:CATA:1,2013-05-05T21:30:00Z,30.3085,-88.1395,2.012,8.37,1111122 
DISL,ioos:station:DISL:CATA:1,2013-05-05T22:00:00Z,30.3085,-88.1395,1.982,8.81,1111122 
DISL,ioos:station:DISL:CATA:1,2013-05-05T22:30:00Z,30.3085,-88.1395,1.954,8.85,1111122 
DISL,ioos:station:DISL:CATA:1,2013-05-05T23:00:00Z,30.3085,-88.1395,1.928,8.93,1111122 
DISL,ioos:station:DISL:CATA:1,2013-05-05T23:30:00Z,30.3085,-88.1395,1.931,8.99,1111122 
DISL,ioos:station:DISL:CATA:1,2013-05-06T00:00:00Z,30.3085,-88.1395,1.925,9.07,1111122 
DISL,ioos:station:DISL:CATA:1,2013-05-06T00:30:00Z,30.3085,-88.1395,1.929,8.91,1111122 
DISL,ioos:station:DISL:CATA:1,2013-05-06T01:00:00Z,30.3085,-88.1395,1.941,8.94,1111122 
DISL,ioos:station:DISL:CATA:1,2013-05-06T01:30:00Z,30.3085,-88.1395,1.946,8.97,1111122 
DISL,ioos:station:DISL:CATA:1,2013-05-06T02:00:00Z,30.3085,-88.1395,1.943,8.37,1111122 
DISL,ioos:station:DISL:CATA:1,2013-05-06T02:30:00Z,30.3085,-88.1395,1.958,8.98,1111122 
DISL,ioos:station:DISL:CATA:1,2013-05-06T03:00:00Z,30.3085,-88.1395,1.96,8.9,1111122 
DISL,ioos:station:DISL:CATA:1,2013-05-06T03:30:00Z,30.3085,-88.1395,1.938,9.08,1111122 
DISL,ioos:station:DISL:CATA:1,2013-05-06T04:00:00Z,30.3085,-88.1395,1.959,8.7,1111122 
DISL,ioos:station:DISL:CATA:1,2013-05-06T04:30:00Z,30.3085,-88.1395,1.966,8.68,1111122 
DISL,ioos:station:DISL:CATA:1,2013-05-06T05:00:00Z,30.3085,-88.1395,1.981,8.61,1111122 
DISL,ioos:station:DISL:CATA:1,2013-05-06T05:30:00Z,30.3085,-88.1395,1.99,8.58,1111122 
DISL,ioos:station:DISL:CATA:1,2013-05-06T06:00:00Z,30.3085,-88.1395,2.006,8.51,1111122 
DISL,ioos:station:DISL:CATA:1,2013-05-06T06:30:00Z,30.3085,-88.1395,2.015,8.43,1111122 
DISL,ioos:station:DISL:CATA:1,2013-05-06T07:00:00Z,30.3085,-88.1395,2.018,8.36,1111122 
DISL,ioos:station:DISL:CATA:1,2013-05-06T07:30:00Z,30.3085,-88.1395,2.028,8.32,1111122 
DISL,ioos:station:DISL:CATA:1,2013-05-06T08:00:00Z,30.3085,-88.1395,2.048,8.27,1111122 
DISL,ioos:station:DISL:CATA:1,2013-05-06T08:30:00Z,30.3085,-88.1395,2.064,8.23,1111122 
DISL,ioos:station:DISL:CATA:1,2013-05-06T09:00:00Z,30.3085,-88.1395,2.079,8.19,1111122 
DISL,ioos:station:DISL:CATA:1,2013-05-06T09:30:00Z,30.3085,-88.1395,2.105,8.3,1111122 
DISL,ioos:station:DISL:CATA:1,2013-05-06T10:00:00Z,30.3085,-88.1395,2.138,8.31,1111122 
DISL,ioos:station:DISL:CATA:1,2013-05-06T10:30:00Z,30.3085,-88.1395,2.155,8.2,1111122 
DISL,ioos:station:DISL:CATA:1,2013-05-06T11:00:00Z,30.3085,-88.1395,2.177,8.05,1111122 
DISL,ioos:station:DISL:CATA:1,2013-05-06T11:30:00Z,30.3085,-88.1395,2.204,7.99,1111122 
DISL,ioos:station:DISL:CATA:1,2013-05-06T12:00:00Z,30.3085,-88.1395,2.214,8.07,1111122 
DISL,ioos:station:DISL:CATA:1,2013-05-06T12:30:00Z,30.3085,-88.1395,2.214,8.09,1111122 
DISL,ioos:station:DISL:CATA:1,2013-05-06T13:00:00Z,30.3085,-88.1395,2.228,8.21,1111122 
DISL,ioos:station:DISL:CATA:1,2013-05-06T13:30:00Z,30.3085,-88.1395,2.25,8.27,1111122 
DISL,ioos:station:DISL:CATA:1,2013-05-06T14:00:00Z,30.3085,-88.1395,2.257,8.34,1111122 
DISL,ioos:station:DISL:CATA:1,2013-05-06T14:30:00Z,30.3085,-88.1395,2.254,8.45,1111122 
DISL,ioos:station:DISL:CATA:1,2013-05-06T15:00:00Z,30.3085,-88.1395,2.249,8.46,1111122 
DISL,ioos:station:DISL:CATA:1,2013-05-06T15:30:00Z,30.3085,-88.1395,2.257,8.56,1111122 